STARLINK-2549, 48314

Orbit data source: Space-Track

STARLINK-2549, 48314 is a payload satellite owned by SpaceX/Seattle (US) in LEO that was launched on Thu, 29 Apr 2021 UTC via an FALCON 9 launch vehicle from the Air Force Eastern Test Range (AFETR). Payload-class satellites include a variety of spacecraft equipped with specific instruments for various scientific and technological missions. These include communications satellites like Starlink; space stations such as the ISS; scientific satellites like the Hubble; Earth observation satellites from companies like Planet Labs, Umbra, and HawkEye 360; GPS; miniature CubeSats for education and research; and military/defense satellites.

Loading next visibility...
Identifier
48314, 2021-036AQ
Orbit
LEO
Country
Flag of USUS
Related business
Manufacturer
SpaceX/Seattle
Mission
Operational Commercial Communications
Bus & Motor
STARLINK, Unknown motor
Mass
260 kg wet, ~248 kg dry
Launch date (UTC)
2021-04-29 (5 years ago)
Launch vehicle
FALCON 9
Launch site
Air Force Eastern Test Range (AFETR)
Object type
Payload
Rocket body
Debris
Shape & HBR
Box + 1 Pan, 10.1 m
Radar Cross Section
13.562 m², Large (>1 m²)

Expand to show TLE details & history
Last TLE update: 20 hours ago

TLE from 20 hours ago
0 STARLINK-2549
1 48314U 21036AQ  25304.23587262  .00002873  00000-0  21164-3 0  9998
2 48314  53.0559 312.7562 0001806 100.7617 259.3575 15.06404355248656
Epoch: 2025-10-31T05:39Z
TLE epoch observation values (Epoch: 2025-10-31T05:39:39.394Z)
Latitude
-0.00005°
Longitude
-171.94118°
Altitude
548.309 km
Speed
7.589 km/s
True Right ascension
20h 51m 01s
True Declination
0° 00' 00"
Sunlit
Object was in daylight at epoch
Visualization orbit readout
Latitude
Unknown
Longitude
Unknown
Altitude
Unknown
Speed
Unknown
Apparent Right ascension
Unknown
Apparent Declination
Unknown
Sunlit
N/A
Visualization observer readout
Local Sidereal Time
21:12:02
Azimuth
Unknown
Elevation
Unknown
Doppler factor
Unknown
Orbital elements
Apogee altitude
548.719 km
Perigee altitude
546.218 km
Semi-major axis
6,925.606 km
Eccentricity
0.00018
Inclination
53.0559°
RAAN
312.7562°
Arg. of periapsis
100.7617°
True anomaly
259.33716°
Mean anomaly
259.3575°
Eccentric anomaly
259.34733°
Mean motion
3.76579 °/min
Orbital period
95.6 mins
BSTAR
0.00021164
Loading maneuver chart data...
Computing Atmospheric mass density...
Loading historical data...
Loading historical data...
Loading historical data...
Loading historical data...
Loading historical data...
Loading historical data...
Loading historical data...

Documentation

Showing up to 5 results
|